Flag for Norway Weather past 2 weeks in Lørenskog, Norway

Now
58 °F

Refreshingly cool.


Feels Like: 58 °F
Forecast: 36 / 56 °F
Wind: 3 mph from Northeast

Location: Oslo-Blindern


UV Index: 0 (Low)

Visibility: N/A


Pressure: 30.42 "Hg

Humidity: 37%

Dew point: 32 °F

Location of LørenskogLocation

Historic Weather in Lørenskog

°F

Lørenskog temperature yesterday

Maximum temperature yesterday: 67 °F (at 5:00 PM)
Minimum temperature yesterday: 52 °F (at 6:00 AM)
Average temperature yesterday: 59 °F

Past Weeks' High & Low Weather Summary

 TemperatureHumidityPressure
High67 °F (Apr 22, 5:00 PM)97% (Apr 11, 9:00 AM)30.44 "Hg (Apr 11, 9:00 AM)
Low31 °F (Apr 16, 6:00 AM)24% (Apr 14, 3:00 PM)29.32 "Hg (Apr 13, 6:00 AM)
Average46 °F64%29.96 "Hg
* Reported Apr 8 1:00 PM — Apr 23 1:00 PM, Lørenskog, Weather by CustomWeather, © 2014

Note: Actual official high and low records may vary slightly from our data, if they occured in-between our weather recording intervals... More about our weather records

Advertising

Historic Weather Conditions — Data for Previous 24 hours

 ConditionsComfort  
Time TempWeatherWind HumidityBarometerVisibility
1:00 PM
Apr 23
58 °FRefreshingly cool.3 mph37%30.42 "HgN/A
12:00 PM56 °FRefreshingly cool.3 mph37%30.44 "HgN/A
11:00 AM54 °FPassing clouds.3 mph42%30.44 "Hg47 mi
10:00 AM52 °FCool.5 mph43%30.44 "HgN/A
9:00 AM51 °FCool.5 mph48%30.43 "HgN/A
8:00 AM49 °FPartly sunny.3 mph55%30.42 "Hg47 mi
7:00 AM49 °FCool.5 mph55%30.39 "HgN/A
6:00 AM49 °FCool.5 mph53%30.37 "HgN/A
5:00 AM50 °FCool.5 mph53%30.35 "HgN/A
4:00 AM51 °FCool.6 mph51%30.32 "HgN/A
3:00 AM53 °FCool.5 mph50%30.29 "HgN/A
2:00 AM54 °FPassing clouds.7 mph48%30.27 "Hg47 mi
1:00 AM54 °FCool.8 mph44%30.24 "HgN/A
12:00 AM56 °FRefreshingly cool.6 mph41%30.23 "HgN/A
11:00 PM
Apr 22
56 °FPassing clouds.7 mph42%30.21 "Hg43 mi
10:00 PM58 °FRefreshingly cool.6 mph38%30.18 "HgN/A
9:00 PM59 °FRefreshingly cool.6 mph38%30.16 "HgN/A
8:00 PM64 °FPassing clouds.5 mph30%30.14 "Hg43 mi
7:00 PM66 °FMild.5 mph29%30.13 "HgN/A
6:00 PM67 °FMild.5 mph30%30.13 "HgN/A
5:00 PM67 °FPassing clouds.5 mph31%30.13 "Hg43 mi
4:00 PM67 °FMild.5 mph32%30.14 "HgN/A
3:00 PM67 °FMild.2 mph32%30.14 "HgN/A
2:00 PM67 °FPassing clouds.3 mph34%30.14 "Hg43 mi
Weather by CustomWeather, © 2014

See weather overview